Temp
-8 -8 -8 -9 -9 -9 -9 -9 -9 -9 -9 -9 -9 -9 -9 -9 -9 -9 -9 -9 -9 -9 -9 -9 -9 -9 -9 -9 -9 -9 -9 -9 -9
-9 -9 -9 -9 -9 -9 -9 -9 -9 -9 -9 -9 -9 -9 -9 -9 -9 -9 -9 -9 -9 -9 -9 -9 -9 -9 -9 -9 -9 -9 -9 -9 -9
-9 -9 -9 -10 -10 -9 -9 -9 -9 -9 -9 -9 -9 -9 -9 -9 -9 -9 -9 -9 -9 -10 -9 -9 -9 -9 -9 -9 -9 -9 -9 -9 -9
-10 -10 -10 -10 -10 -10 -10 -10 -10 -10 -10 -10 -10 -10 -10 -10 -10 -10 -10 -10 -10 -9 -9 -9 -9 -9 -9 -9 -9 -9 -9 -9 -9
-10 -10 -10 -10 -10 -10 -10 -10 -10 -10 -10 -10 -10 -10 -10 -10 -10 -10 -10 -10 -10 -10 -9 -9 -9 -9 -9 -9 -9 -9 -9 -9 -9
-11 -11 -11 -10 -10 -10 -10 -10 -10 -10 -10 -10 -10 -10 -10 -10 -10 -10 -10 -10 -10 -10 -10 -10 -10 -9 -9 -9 -9 -9 -9 -10 -10
-11 -11 -11 -11 -11 -11 -11 -11 -11 -11 -11 -11 -11 -11 -11 -11 -11 -11 -10 -10 -10 -10 -10 -10 -10 -10 -10 -10 -10 -10 -10 -10 -11
-12 -11 -11 -11 -11 -11 -11 -11 -11 -11 -11 -11 -11 -11 -11 -11 -11 -11 -10 -10 -10 -10 -10 -11 -11 -10 -10 -10 -11 -10 -11 -11 -11
-12 -12 -12 -11 -11 -11 -11 -11 -11 -11 -11 -11 -11 -11 -11 -11 -11 -10 -10 -10 -10 -10 -11 -11 -11 -11 -11 -11 -11 -11 -11 -11 -11
-12 -12 -12 -12 -12 -12 -12 -11 -11 -11 -11 -11 -11 -11 -11 -11 -11 -11 -10 -11 -11 -11 -11 -11 -12 -12 -12 -12 -12 -12 -12 -12 -12
-12 -12 -12 -12 -12 -12 -12 -12 -11 -11 -11 -11 -11 -11 -11 -11 -11 -11 -11 -11 -11 -11 -11 -12 -12 -13 -13 -13 -12 -12 -12 -12 -13
-13 -12 -12 -12 -12 -12 -12 -12 -12 -11 -11 -11 -11 -11 -11 -11 -11 -11 -11 -11 -11 -12 -12 -12 -12 -12 -12 -13 -13 -13 -13 -13 -13
-13 -13 -13 -13 -12 -12 -12 -12 -12 -11 -11 -11 -11 -11 -11 -11 -11 -11 -11 -11 -12 -12 -12 -12 -12 -12 -13 -13 -13 -13 -13 -13 -13
-13 -13 -13 -13 -13 -12 -12 -12 -12 -12 -11 -11 -11 -11 -11 -11 -11 -11 -12 -12 -12 -13 -13 -13 -13 -13 -13 -13 -13 -13 -13 -13 -13
-13 -13 -13 -13 -13 -13 -12 -12 -12 -12 -12 -11 -11 -11 -11 -11 -11 -12 -12 -13 -13 -13 -13 -13 -13 -13 -13 -13 -13 -13 -13 -13 -13
-13 -13 -13 -13 -13 -13 -13 -12 -12 -12 -12 -12 -11 -11 -12 -12 -12 -12 -12 -13 -13 -13 -13 -13 -13 -13 -14 -14 -14 -14 -14 -14 -14
-13 -14 -13 -13 -13 -13 -13 -12 -12 -12 -12 -12 -12 -12 -12 -12 -12 -13 -13 -13 -14 -14 -14 -14 -14 -14 -14 -14 -14 -14 -14 -14 -14
-14 -13 -13 -13 -13 -13 -13 -12 -12 -12 -12 -12 -12 -12 -12 -12 -13 -14 -14 -14 -14 -14 -15 -15 -15 -15 -15 -15 -15 -15 -15 -15 -15
-13 -13 -13 -13 -13 -13 -13 -13 -12 -12 -12 -12 -12 -13 -12 -13 -13 -14 -14 -14 -15 -15 -15 -15 -16 -16 -16 -15 -15 -15 -15 -16 -16
-13 -13 -13 -13 -13 -13 -13 -13 -13 -12 -12 -13 -13 -13 -13 -13 -13 -14 -15 -15 -15 -15 -16 -16 -16 -16 -16 -16 -16 -17 -17 -17 -17
Height
5841 5841 5840 5840 5840 5840 5839 5839 5838 5837 5837 5836 5835 5835 5834 5834 5833 5832 5830 5829 5828 5827 5826 5826 5826 5824 5824 5822 5822 5822 5822 5822 5822
5837 5837 5837 5836 5836 5836 5836 5836 5835 5834 5833 5832 5831 5831 5830 5829 5827 5827 5825 5824 5823 5821 5820 5821 5820 5819 5817 5817 5816 5816 5816 5816 5816
5834 5834 5833 5833 5832 5833 5832 5832 5831 5831 5829 5828 5826 5826 5825 5824 5823 5822 5821 5818 5818 5817 5815 5815 5814 5812 5811 5811 5810 5810 5809 5809 5809
5830 5830 5830 5830 5830 5829 5829 5828 5827 5827 5825 5824 5822 5821 5821 5820 5819 5818 5817 5813 5813 5811 5809 5808 5808 5806 5804 5803 5803 5803 5802 5801 5801
5826 5826 5826 5826 5826 5826 5824 5824 5823 5822 5820 5819 5817 5816 5815 5814 5814 5812 5811 5808 5808 5806 5803 5802 5802 5800 5797 5796 5796 5795 5794 5793 5793
5822 5822 5823 5822 5821 5821 5820 5819 5819 5817 5815 5813 5811 5810 5808 5807 5807 5805 5804 5802 5801 5799 5796 5796 5794 5791 5790 5789 5788 5787 5786 5785 5783
5819 5818 5818 5817 5817 5816 5816 5814 5813 5811 5808 5805 5803 5803 5801 5801 5799 5798 5797 5796 5795 5792 5790 5789 5786 5784 5783 5782 5781 5779 5778 5777 5776
5814 5814 5813 5813 5812 5812 5810 5809 5806 5804 5801 5799 5798 5797 5796 5794 5793 5792 5790 5789 5788 5786 5784 5782 5778 5776 5775 5774 5773 5771 5771 5770 5768
5808 5808 5807 5807 5807 5806 5805 5803 5801 5799 5797 5795 5794 5792 5791 5789 5786 5785 5783 5782 5780 5778 5777 5774 5771 5769 5767 5766 5764 5763 5763 5761 5760
5802 5802 5801 5801 5801 5800 5798 5797 5796 5794 5792 5790 5788 5786 5785 5783 5780 5779 5776 5774 5771 5769 5767 5765 5762 5760 5759 5757 5756 5754 5753 5752 5752
5796 5796 5795 5794 5794 5793 5792 5790 5789 5788 5786 5784 5782 5780 5778 5776 5773 5771 5769 5766 5763 5760 5757 5755 5753 5751 5750 5749 5747 5745 5744 5742 5741
5791 5790 5788 5788 5786 5785 5785 5784 5782 5781 5778 5777 5774 5773 5770 5768 5765 5763 5760 5758 5755 5752 5749 5748 5746 5744 5742 5740 5738 5736 5735 5733 5731
5784 5783 5783 5782 5780 5778 5778 5777 5775 5773 5771 5769 5767 5765 5762 5760 5757 5754 5752 5749 5746 5743 5741 5739 5737 5734 5732 5730 5727 5725 5723 5721 5719
5777 5776 5775 5774 5773 5772 5771 5770 5768 5766 5763 5761 5759 5757 5754 5752 5749 5746 5743 5740 5736 5734 5732 5729 5727 5723 5721 5718 5715 5712 5710 5708 5705
5770 5770 5768 5767 5767 5766 5764 5762 5760 5758 5756 5753 5750 5748 5745 5742 5739 5736 5733 5729 5726 5724 5721 5718 5715 5712 5708 5705 5701 5698 5695 5692 5689
5763 5763 5761 5760 5760 5758 5757 5755 5753 5751 5748 5744 5741 5739 5735 5732 5729 5725 5721 5718 5715 5712 5709 5705 5702 5698 5694 5690 5686 5682 5679 5675 5671
5755 5755 5754 5753 5752 5751 5749 5747 5745 5743 5739 5736 5733 5729 5726 5721 5718 5713 5709 5706 5702 5698 5694 5690 5686 5682 5678 5674 5669 5665 5661 5657 5654
5748 5747 5746 5745 5744 5742 5740 5739 5737 5734 5730 5727 5724 5721 5718 5713 5709 5703 5699 5694 5689 5684 5678 5674 5669 5664 5659 5655 5650 5646 5642 5638 5634
5740 5739 5738 5737 5735 5733 5732 5730 5726 5723 5720 5718 5714 5709 5705 5702 5701 5697 5691 5686 5679 5673 5666 5659 5653 5648 5642 5637 5632 5627 5622 5618 5613
5732 5731 5730 5728 5727 5725 5723 5720 5716 5713 5710 5706 5703 5699 5694 5690 5686 5684 5679 5673 5666 5661 5655 5648 5642 5634 5627 5621 5615 5610 5605 5599 5594
Wind_Speed
14 15 15 14 16 17 18 20 20 20 20 20 20 21 22 23 24 25 25 26 27 27 27 28 28 27 28 28 29 29 28 28 31
15 14 14 14 14 15 16 17 17 18 18 19 19 22 23 24 24 26 26 26 27 27 28 30 31 30 30 30 30 31 31 31 31
16 15 15 14 13 14 15 16 16 16 17 17 18 19 20 20 20 20 21 20 23 24 25 28 29 30 31 31 31 32 33 33 34
17 16 16 16 15 16 16 17 18 19 18 19 18 19 20 21 22 22 24 24 27 27 27 30 32 33 35 36 35 34 33 35 36
19 18 17 18 18 19 19 20 20 22 23 27 27 27 27 27 26 26 27 27 30 30 30 31 31 35 37 37 37 37 38 39 38
21 20 20 20 20 21 21 22 25 29 30 33 32 31 30 30 29 29 30 31 32 33 33 33 34 36 36 37 38 38 37 36 37
23 22 22 23 23 23 25 25 29 31 32 30 27 26 26 26 26 27 28 31 31 30 30 31 33 35 35 36 35 35 34 34 34
24 24 25 25 26 25 25 27 29 31 29 23 19 20 20 22 24 26 26 29 30 33 35 36 38 38 37 34 34 34 34 33 33
28 28 27 28 27 27 27 28 30 30 24 19 18 19 22 23 25 27 30 33 35 39 39 40 41 40 39 37 36 36 35 36 36
30 29 29 29 28 28 27 29 29 28 25 24 24 25 26 28 29 32 36 39 40 42 41 41 41 41 39 37 37 38 38 38 38
30 30 30 29 29 29 30 30 30 30 29 31 31 31 31 32 33 36 39 40 42 43 42 40 36 35 35 37 39 40 40 42 42
29 29 30 28 28 29 31 31 31 33 35 35 35 34 35 36 37 40 41 42 43 42 38 36 38 39 40 41 42 43 44 45 46
30 29 30 29 29 30 31 32 33 36 38 34 33 35 36 38 40 42 43 44 43 39 38 41 42 43 45 46 47 49 50 51 53
32 30 31 31 31 31 32 33 35 36 36 33 34 36 38 41 42 43 45 45 43 41 43 44 47 48 50 52 54 56 57 58 59
34 32 34 33 33 33 34 35 36 36 37 36 37 40 43 43 44 47 47 45 44 45 47 49 51 53 55 56 57 58 60 61 62
37 35 35 34 34 35 36 37 37 39 39 40 41 45 45 44 47 49 48 47 48 50 52 54 56 57 58 59 61 62 64 64 64
39 37 36 37 37 38 39 40 40 41 41 42 45 47 46 48 50 51 50 50 52 54 57 59 60 61 63 64 66 66 65 66 67
38 39 40 41 41 42 42 43 43 43 44 46 48 47 47 49 48 49 51 55 57 58 60 62 64 67 68 67 67 68 69 70 71
37 38 40 42 43 44 44 45 45 45 47 49 50 49 52 51 47 47 52 55 57 60 63 66 67 68 70 72 72 73 73 73 73
38 39 40 41 43 44 46 46 46 47 50 51 50 51 51 51 53 53 54 57 59 61 61 62 66 70 72 72 71 70 73 75 77
Wind_Direction
259 257 257 257 262 262 263 266 267 271 275 277 280 280 280 281 280 280 280 284 285 287 288 288 288 288 287 284 281 278 276 273 265
258 258 259 260 261 265 268 272 275 279 281 284 286 285 284 282 282 282 283 285 284 286 287 286 286 284 283 283 281 279 275 273 272
254 256 257 259 263 268 271 273 277 280 282 284 285 286 286 284 284 284 285 287 287 288 289 288 286 286 285 282 280 278 277 275 273
254 256 259 263 264 270 272 278 282 281 284 285 287 288 288 287 287 289 288 290 289 290 292 289 288 287 286 283 282 281 278 276 274
255 254 256 261 265 267 267 273 276 282 286 289 290 289 289 286 285 289 291 294 294 295 296 292 295 293 283 281 280 277 276 275 275
253 252 256 261 265 270 275 281 288 291 290 291 291 289 288 285 284 286 290 292 292 293 292 293 289 283 283 284 281 279 278 277 275
254 255 258 262 267 271 280 288 294 295 298 294 286 282 283 279 280 284 287 289 289 289 291 292 291 288 283 281 281 280 278 277 275
257 259 263 265 270 276 285 291 294 297 298 293 285 283 284 284 284 285 288 289 292 293 296 298 295 292 288 285 281 278 277 276 276
257 260 264 268 272 278 284 288 292 296 290 283 283 287 289 290 291 292 293 293 294 294 294 293 293 294 290 285 283 281 280 278 278
257 260 263 267 272 276 281 284 287 295 289 280 283 284 288 291 295 297 297 297 297 297 297 295 293 291 288 284 283 282 282 280 278
258 260 263 267 270 273 276 279 284 288 293 284 280 281 286 291 295 296 296 296 297 297 296 294 293 291 287 284 283 283 283 282 281
265 264 264 266 269 271 274 279 283 290 292 288 277 280 286 290 293 294 295 295 296 294 290 289 289 288 286 284 282 280 280 279 279
261 263 265 267 269 271 275 280 288 290 293 287 281 281 286 290 292 293 295 295 294 288 284 286 285 285 284 283 282 280 279 278 278
261 262 264 267 270 272 277 283 287 291 293 286 285 286 288 289 292 292 294 293 290 286 285 285 285 284 283 282 281 280 280 279 278
259 262 264 266 270 274 278 283 287 290 292 290 290 291 291 292 292 293 293 291 287 286 286 285 284 284 284 283 284 284 282 282 281
259 258 265 269 273 276 279 283 287 288 291 293 293 293 294 294 294 294 292 290 289 288 287 286 286 287 287 287 286 285 284 284 282
259 260 265 270 273 277 279 283 285 287 290 293 294 296 295 295 296 295 293 292 291 290 290 290 290 290 289 289 289 288 287 286 285
262 264 266 269 274 277 280 283 284 286 289 292 293 293 292 294 294 293 292 292 292 294 294 294 294 294 293 292 291 290 288 288 287
267 267 268 271 273 276 279 281 284 286 290 292 294 294 295 294 291 289 289 290 292 294 295 294 294 294 293 292 291 291 290 290 288
268 270 271 273 276 278 280 284 286 289 292 293 294 294 295 295 295 294 294 295 294 294 292 290 290 291 291 292 292 291 289 288 287